Location: Bethel Church
(38.0159°N, 88.7292°W)
Time: 07:59:50
(UTC+00:00)

Cosmos 1570 Rocket - Pass Details

Date: 08 December 2021
Orbit: 763 x 788 km, 74.1° (Epoch: 16 January)

Event Time Altitude Azimuth Distance (km) Brightness Sun altitude
Rises 23:20:33 0° 203° (SSW) 3,223 8.0 -8.9°
Reaches altitude 10° 23:22:56 10° 205° (SSW) 2,298 7.2 -9.3°
Maximum altitude 23:28:07 71° 289° (WNW) 811 4.3 -10.3°
Drops below altitude 10° 23:33:20 10° 14° (NNE) 2,304 6.2 -11.3°
Sets 23:35:44 0° 16° (NNE) 3,234 6.9 -11.7°
Enters shadow 23:35:54 -1° 16° (NNE) 3,300 6.9 -11.7°
